Time,TemperatureF,DewpointF,PressureIn,WindDirection,WindDirectionDegrees,WindSpeedMPH,WindSpeedGustMPH,Humidity,HourlyPrecipIn,Conditions,Clouds,dailyrainin,SoftwareType,DateUTC
2013-01-29 00:11:00,30.2,29.0,29.94,SSE,152,0.0,0.0,93,0.00,,,0.00,weatherlink.com 1.10,2013-01-29 05:11:00,
2013-01-29 00:26:00,30.3,29.0,29.94,South,170,0.0,0.0,94,0.00,,,0.00,weatherlink.com 1.10,2013-01-29 05:26:00,
2013-01-29 00:41:00,30.3,29.0,29.94,SSW,193,0.0,0.0,94,0.00,,,0.00,weatherlink.com 1.10,2013-01-29 05:41:00,
2013-01-29 00:56:00,30.2,29.0,29.93,South,189,0.0,0.0,94,0.00,,,0.00,weatherlink.com 1.10,2013-01-29 05:56:00,
2013-01-29 01:11:00,30.1,29.0,29.92,SSW,204,0.0,0.0,94,0.00,,,0.00,weatherlink.com 1.10,2013-01-29 06:11:00,
2013-01-29 01:26:00,30.1,29.0,29.91,SSW,194,0.0,0.0,94,0.00,,,0.00,weatherlink.com 1.10,2013-01-29 06:26:00,
2013-01-29 01:41:00,30.2,29.0,29.90,South,169,0.0,0.0,94,0.00,,,0.00,weatherlink.com 1.10,2013-01-29 06:41:00,
2013-01-29 01:56:00,30.2,29.0,29.88,SSE,148,0.0,0.0,94,0.00,,,0.00,weatherlink.com 1.10,2013-01-29 06:56:00,
2013-01-29 02:11:00,30.5,29.0,29.87,South,180,0.0,0.0,94,0.00,,,0.00,weatherlink.com 1.10,2013-01-29 07:11:00,
2013-01-29 02:26:00,30.8,29.0,29.87,South,184,0.0,0.0,94,0.00,,,0.00,weatherlink.com 1.10,2013-01-29 07:26:00,
2013-01-29 02:41:00,30.9,29.0,29.86,South,174,0.0,0.0,94,0.00,,,0.00,weatherlink.com 1.10,2013-01-29 07:41:00,
2013-01-29 02:56:00,31.1,30.0,29.86,SSE,151,0.0,0.0,94,0.00,,,0.00,weatherlink.com 1.10,2013-01-29 07:56:00,
2013-01-29 03:12:00,31.2,30.0,29.82,SE,132,0.0,0.0,94,0.00,,,0.00,weatherlink.com 1.10,2013-01-29 08:12:00,
2013-01-29 03:27:00,31.4,30.0,29.82,SE,134,0.0,0.0,94,0.00,,,0.00,weatherlink.com 1.10,2013-01-29 08:27:00,
2013-01-29 03:42:00,31.6,30.0,29.81,SSE,155,10.0,11.0,94,0.00,,,0.00,weatherlink.com 1.10,2013-01-29 08:42:00,
2013-01-29 03:57:00,31.8,30.0,29.79,SE,131,7.0,16.0,94,0.00,,,0.00,weatherlink.com 1.10,2013-01-29 08:57:00,
2013-01-29 04:12:00,32.1,31.0,29.80,SSE,150,6.0,13.0,94,0.00,,,0.00,weatherlink.com 1.10,2013-01-29 09:12:00,
2013-01-29 04:27:00,32.3,31.0,29.78,SE,134,11.0,11.0,94,0.00,,,0.00,weatherlink.com 1.10,2013-01-29 09:27:00,
2013-01-29 04:42:00,32.6,31.0,29.77,SE,130,5.0,12.0,94,0.00,,,0.00,weatherlink.com 1.10,2013-01-29 09:42:00,
2013-01-29 04:57:00,32.9,31.0,29.76,ESE,119,8.0,13.0,94,0.00,,,0.00,weatherlink.com 1.10,2013-01-29 09:57:00,
2013-01-29 05:12:00,33.1,32.0,29.75,SE,128,7.0,10.0,94,0.00,,,0.00,weatherlink.com 1.10,2013-01-29 10:12:00,
2013-01-29 05:27:00,33.3,32.0,29.74,ESE,121,10.0,11.0,93,0.00,,,0.00,weatherlink.com 1.10,2013-01-29 10:27:00,
2013-01-29 05:42:00,33.5,32.0,29.73,SE,136,10.0,10.0,94,0.00,,,0.00,weatherlink.com 1.10,2013-01-29 10:42:00,
2013-01-29 05:57:00,33.7,32.0,29.72,SE,128,7.0,13.0,93,0.00,,,0.00,weatherlink.com 1.10,2013-01-29 10:57:00,
2013-01-29 06:12:00,33.9,32.0,29.72,SE,138,6.0,10.0,94,0.00,,,0.00,weatherlink.com 1.10,2013-01-29 11:12:00,
2013-01-29 06:27:00,34.1,33.0,29.70,SE,143,12.0,12.0,94,0.00,,,0.00,weatherlink.com 1.10,2013-01-29 11:27:00,
2013-01-29 06:42:00,34.2,33.0,29.68,SE,128,8.0,13.0,94,0.00,,,0.00,weatherlink.com 1.10,2013-01-29 11:42:00,
2013-01-29 06:57:00,34.2,33.0,29.66,SE,126,9.0,15.0,95,0.00,,,0.00,weatherlink.com 1.10,2013-01-29 11:57:00,
2013-01-29 07:12:00,34.3,33.0,29.66,SE,135,10.0,15.0,95,0.00,,,0.00,weatherlink.com 1.10,2013-01-29 12:12:00,
2013-01-29 07:27:00,34.7,34.0,29.64,SSE,151,4.0,15.0,95,0.00,,,0.00,weatherlink.com 1.10,2013-01-29 12:27:00,
2013-01-29 07:42:00,35.3,34.0,29.65,South,177,5.0,8.0,95,0.00,,,0.00,weatherlink.com 1.10,2013-01-29 12:42:00,
2013-01-29 07:57:00,36.0,35.0,29.64,SSE,167,7.0,11.0,96,0.00,,,0.00,weatherlink.com 1.10,2013-01-29 12:57:00,
2013-01-29 08:12:00,36.5,36.0,29.64,SE,144,4.0,11.0,96,0.00,,,0.00,weatherlink.com 1.10,2013-01-29 13:12:00,
2013-01-29 08:27:00,37.0,36.0,29.64,SSE,149,5.0,10.0,95,0.01,,,0.01,weatherlink.com 1.10,2013-01-29 13:27:00,
2013-01-29 08:42:00,37.3,36.0,29.64,SSE,153,4.0,8.0,96,0.02,,,0.02,weatherlink.com 1.10,2013-01-29 13:42:00,
2013-01-29 08:58:00,37.4,36.0,29.62,SSE,161,7.0,10.0,95,0.03,,,0.03,weatherlink.com 1.10,2013-01-29 13:58:00,
2013-01-29 09:13:00,37.5,36.0,29.62,South,180,8.0,10.0,95,0.04,,,0.04,weatherlink.com 1.10,2013-01-29 14:13:00,
2013-01-29 09:28:00,37.9,37.0,29.62,South,171,5.0,10.0,96,0.05,,,0.06,weatherlink.com 1.10,2013-01-29 14:28:00,
2013-01-29 09:43:00,38.2,37.0,29.60,SSE,167,4.0,11.0,95,0.05,,,0.07,weatherlink.com 1.10,2013-01-29 14:43:00,
2013-01-29 09:58:00,38.3,37.0,29.60,South,185,11.0,14.0,95,0.04,,,0.08,weatherlink.com 1.10,2013-01-29 14:58:00,
2013-01-29 10:13:00,38.6,37.0,29.60,South,182,14.0,17.0,95,0.06,,,0.10,weatherlink.com 1.10,2013-01-29 15:13:00,
2013-01-29 10:28:00,38.9,38.0,29.59,SSW,194,11.0,17.0,96,0.06,,,0.12,weatherlink.com 1.10,2013-01-29 15:28:00,
2013-01-29 10:43:00,39.1,38.0,29.59,South,187,9.0,15.0,96,0.05,,,0.12,weatherlink.com 1.10,2013-01-29 15:43:00,
2013-01-29 10:58:00,39.4,38.0,29.58,South,185,9.0,18.0,96,0.05,,,0.13,weatherlink.com 1.10,2013-01-29 15:58:00,
2013-01-29 11:13:00,39.5,39.0,29.58,South,180,10.0,17.0,97,0.04,,,0.14,weatherlink.com 1.10,2013-01-29 16:13:00,
2013-01-29 11:28:00,40.1,39.0,29.58,South,190,10.0,19.0,97,0.02,,,0.14,weatherlink.com 1.10,2013-01-29 16:28:00,
2013-01-29 11:43:00,40.8,40.0,29.56,South,183,10.0,17.0,97,0.03,,,0.15,weatherlink.com 1.10,2013-01-29 16:43:00,
2013-01-29 11:58:00,41.2,40.0,29.54,South,177,13.0,18.0,97,0.03,,,0.16,weatherlink.com 1.10,2013-01-29 16:58:00,
2013-01-29 12:13:00,41.9,41.0,29.53,SSW,204,6.0,18.0,97,0.02,,,0.16,weatherlink.com 1.10,2013-01-29 17:13:00,
2013-01-29 12:28:00,43.0,42.0,29.52,SW,220,10.0,13.0,97,0.02,,,0.16,weatherlink.com 1.10,2013-01-29 17:28:00,
2013-01-29 12:43:00,43.7,43.0,29.52,SSW,207,11.0,17.0,96,0.02,,,0.17,weatherlink.com 1.10,2013-01-29 17:43:00,
2013-01-29 12:58:00,43.8,43.0,29.51,SSW,206,13.0,17.0,96,0.01,,,0.17,weatherlink.com 1.10,2013-01-29 17:58:00,
2013-01-29 13:13:00,44.4,43.0,29.51,SSW,208,14.0,20.0,96,0.01,,,0.17,weatherlink.com 1.10,2013-01-29 18:13:00,
2013-01-29 13:28:00,44.9,44.0,29.50,SSW,198,18.0,20.0,96,0.01,,,0.17,weatherlink.com 1.10,2013-01-29 18:28:00,
2013-01-29 13:43:00,45.4,45.0,29.49,SSW,200,11.0,20.0,97,0.00,,,0.17,weatherlink.com 1.10,2013-01-29 18:43:00,
2013-01-29 13:58:00,46.7,46.0,29.49,SSW,207,16.0,26.0,97,0.00,,,0.17,weatherlink.com 1.10,2013-01-29 18:58:00,
2013-01-29 14:13:00,46.9,46.0,29.48,SW,215,14.0,21.0,97,0.00,,,0.17,weatherlink.com 1.10,2013-01-29 19:13:00,
2013-01-29 14:28:00,47.2,46.0,29.47,SSW,199,10.0,19.0,97,0.00,,,0.17,weatherlink.com 1.10,2013-01-29 19:28:00,
2013-01-29 14:43:00,47.4,47.0,29.48,SW,223,13.0,17.0,97,0.00,,,0.17,weatherlink.com 1.10,2013-01-29 19:43:00,
2013-01-29 14:58:00,47.5,47.0,29.48,SSW,207,12.0,18.0,97,0.00,,,0.17,weatherlink.com 1.10,2013-01-29 19:58:00,
2013-01-29 15:13:00,48.1,48.0,29.47,SW,222,10.0,18.0,98,0.00,,,0.17,weatherlink.com 1.10,2013-01-29 20:13:00,
2013-01-29 15:28:00,48.4,48.0,29.47,SW,218,14.0,19.0,98,0.00,,,0.17,weatherlink.com 1.10,2013-01-29 20:28:00,
2013-01-29 15:43:00,48.6,48.0,29.47,SW,216,11.0,20.0,98,0.00,,,0.17,weatherlink.com 1.10,2013-01-29 20:43:00,
2013-01-29 15:58:00,48.7,48.0,29.47,SSW,211,14.0,17.0,98,0.00,,,0.17,weatherlink.com 1.10,2013-01-29 20:58:00,
2013-01-29 16:14:00,49.0,49.0,29.47,SSW,204,13.0,20.0,98,0.00,,,0.17,weatherlink.com 1.10,2013-01-29 21:14:00,
2013-01-29 16:29:00,48.5,48.0,29.47,SSW,205,9.0,16.0,98,0.00,,,0.17,weatherlink.com 1.10,2013-01-29 21:29:00,
2013-01-29 16:44:00,48.8,49.0,29.47,SSW,200,11.0,15.0,99,0.00,,,0.17,weatherlink.com 1.10,2013-01-29 21:44:00,
2013-01-29 16:59:00,48.9,48.0,29.47,SW,235,14.0,15.0,98,0.00,,,0.17,weatherlink.com 1.10,2013-01-29 21:59:00,
2013-01-29 17:14:00,48.8,49.0,29.48,SW,223,10.0,16.0,99,0.00,,,0.17,weatherlink.com 1.10,2013-01-29 22:14:00,
2013-01-29 17:29:00,49.1,49.0,29.47,WSW,244,10.0,14.0,99,0.00,,,0.17,weatherlink.com 1.10,2013-01-29 22:29:00,
2013-01-29 17:44:00,48.9,49.0,29.48,WSW,247,5.0,11.0,99,0.00,,,0.17,weatherlink.com 1.10,2013-01-29 22:44:00,
2013-01-29 18:14:00,48.9,49.0,29.49,West,261,7.0,10.0,99,0.00,,,0.17,weatherlink.com 1.10,2013-01-29 23:14:00,
2013-01-29 18:29:00,48.3,48.0,29.50,NNW,336,16.0,18.0,99,0.00,,,0.17,weatherlink.com 1.10,2013-01-29 23:29:00,
2013-01-29 18:44:00,43.0,43.0,29.50,NW,325,10.0,15.0,98,0.01,,,0.18,weatherlink.com 1.10,2013-01-29 23:44:00,
2013-01-29 18:59:00,42.9,42.0,29.51,WNW,292,8.0,15.0,98,0.01,,,0.18,weatherlink.com 1.10,2013-01-29 23:59:00,
2013-01-29 19:14:00,42.5,42.0,29.51,NW,312,8.0,14.0,98,0.01,,,0.18,weatherlink.com 1.10,2013-01-30 00:14:00,
2013-01-29 19:29:00,41.2,41.0,29.50,NNW,329,10.0,14.0,98,0.01,,,0.18,weatherlink.com 1.10,2013-01-30 00:29:00,
2013-01-29 19:44:00,40.2,40.0,29.51,WNW,301,7.0,12.0,98,0.00,,,0.18,weatherlink.com 1.10,2013-01-30 00:44:00,
2013-01-29 19:59:00,39.4,39.0,29.51,NW,304,8.0,14.0,98,0.02,,,0.20,weatherlink.com 1.10,2013-01-30 00:59:00,
2013-01-29 20:14:00,38.9,38.0,29.51,NW,309,2.0,8.0,98,0.04,,,0.22,weatherlink.com 1.10,2013-01-30 01:14:00,
2013-01-29 20:29:00,38.9,38.0,29.50,North,349,2.0,5.0,98,0.06,,,0.24,weatherlink.com 1.10,2013-01-30 01:29:00,
2013-01-29 20:44:00,38.9,38.0,29.50,North,350,1.0,7.0,98,0.09,,,0.27,weatherlink.com 1.10,2013-01-30 01:44:00,
2013-01-29 20:59:00,38.6,38.0,29.50,NNE,22,5.0,9.0,99,0.09,,,0.29,weatherlink.com 1.10,2013-01-30 01:59:00,
2013-01-29 21:14:00,38.1,38.0,29.49,North,5,4.0,7.0,98,0.09,,,0.31,weatherlink.com 1.10,2013-01-30 02:14:00,
2013-01-29 21:29:00,37.7,37.0,29.48,NNE,16,6.0,8.0,98,0.09,,,0.33,weatherlink.com 1.10,2013-01-30 02:29:00,
2013-01-29 21:44:00,37.2,37.0,29.47,North,360,6.0,9.0,98,0.08,,,0.35,weatherlink.com 1.10,2013-01-30 02:44:00,
2013-01-29 21:59:00,36.5,36.0,29.47,North,5,10.0,13.0,98,0.08,,,0.37,weatherlink.com 1.10,2013-01-30 02:59:00,
2013-01-29 22:14:00,36.1,36.0,29.46,NNE,18,11.0,18.0,98,0.08,,,0.39,weatherlink.com 1.10,2013-01-30 03:14:00,
2013-01-29 22:29:00,35.8,35.0,29.45,NE,35,13.0,16.0,98,0.08,,,0.41,weatherlink.com 1.10,2013-01-30 03:29:00,
2013-01-29 22:44:00,35.2,35.0,29.45,North,5,8.0,14.0,98,0.09,,,0.45,weatherlink.com 1.10,2013-01-30 03:44:00,
2013-01-29 22:59:00,35.0,35.0,29.44,NNE,28,10.0,15.0,98,0.11,,,0.48,weatherlink.com 1.10,2013-01-30 03:59:00,
2013-01-29 23:14:00,35.2,35.0,29.43,NNE,25,12.0,16.0,98,0.11,,,0.50,weatherlink.com 1.10,2013-01-30 04:14:00,
2013-01-29 23:29:00,35.2,35.0,29.42,NNE,13,9.0,15.0,98,0.11,,,0.52,weatherlink.com 1.10,2013-01-30 04:29:00,
2013-01-29 23:44:00,35.1,35.0,29.42,North,9,16.0,17.0,98,0.09,,,0.54,weatherlink.com 1.10,2013-01-30 04:44:00,
2013-01-29 23:59:00,34.9,35.0,29.42,North,5,19.0,20.0,99,0.06,,,0.54,weatherlink.com 1.10,2013-01-30 04:59:00,